Precipitable_Water
0.40 0.40 0.39 0.39 0.38 0.38 0.40 0.41 0.39 0.37 0.38 0.43 0.45 0.45 0.48 0.49 0.52 0.53 0.48 0.55 0.43 0.35 0.34 0.40 0.45 0.42 0.42 0.37 0.30 0.39 0.38 0.44 0.43 0.36 0.34 0.33 0.32 0.33 0.30 0.30 0.28 0.26 0.26 0.25 0.26 0.22 0.18 0.33 0.30 0.21 0.27 0.34 0.34 0.34
0.39 0.40 0.40 0.40 0.39 0.37 0.35 0.34 0.39 0.37 0.35 0.38 0.43 0.46 0.48 0.48 0.50 0.57 0.44 0.52 0.56 0.43 0.36 0.51 0.54 0.57 0.56 0.53 0.47 0.47 0.35 0.39 0.43 0.37 0.38 0.34 0.28 0.31 0.28 0.23 0.32 0.25 0.28 0.26 0.26 0.24 0.32 0.34 0.30 0.34 0.36 0.33 0.34 0.33
0.32 0.32 0.34 0.35 0.37 0.36 0.34 0.36 0.37 0.38 0.35 0.35 0.37 0.41 0.44 0.45 0.49 0.53 0.48 0.54 0.53 0.43 0.37 0.38 0.37 0.53 0.65 0.66 0.70 0.47 0.48 0.49 0.44 0.46 0.40 0.36 0.28 0.31 0.25 0.26 0.29 0.32 0.34 0.27 0.27 0.31 0.32 0.33 0.36 0.38 0.38 0.35 0.36 0.35
0.36 0.33 0.31 0.31 0.31 0.32 0.32 0.34 0.38 0.43 0.44 0.45 0.44 0.40 0.43 0.43 0.49 0.54 0.50 0.58 0.50 0.42 0.29 0.27 0.49 0.48 0.66 0.69 0.69 0.66 0.59 0.58 0.53 0.46 0.40 0.35 0.30 0.34 0.28 0.29 0.27 0.30 0.31 0.28 0.28 0.33 0.33 0.33 0.34 0.36 0.38 0.39 0.37 0.35
0.32 0.32 0.32 0.33 0.33 0.34 0.37 0.39 0.44 0.48 0.49 0.48 0.46 0.44 0.40 0.43 0.48 0.55 0.57 0.58 0.57 0.40 0.30 0.33 0.45 0.55 0.66 0.70 0.62 0.61 0.58 0.54 0.46 0.41 0.37 0.36 0.37 0.33 0.34 0.32 0.27 0.31 0.26 0.23 0.21 0.28 0.28 0.31 0.37 0.39 0.37 0.36 0.33 0.30
0.42 0.43 0.43 0.42 0.41 0.42 0.44 0.48 0.50 0.51 0.53 0.52 0.49 0.42 0.40 0.44 0.49 0.52 0.41 0.53 0.60 0.59 0.38 0.29 0.48 0.52 0.61 0.63 0.60 0.57 0.55 0.52 0.48 0.43 0.38 0.37 0.38 0.32 0.26 0.24 0.31 0.33 0.34 0.31 0.25 0.34 0.35 0.36 0.39 0.40 0.36 0.32 0.30 0.28
0.53 0.53 0.53 0.52 0.51 0.50 0.50 0.51 0.54 0.55 0.55 0.52 0.46 0.40 0.45 0.46 0.49 0.44 0.37 0.46 0.56 0.57 0.41 0.33 0.37 0.52 0.59 0.56 0.54 0.51 0.48 0.45 0.41 0.37 0.34 0.33 0.33 0.31 0.26 0.23 0.29 0.33 0.32 0.32 0.34 0.31 0.30 0.33 0.30 0.33 0.33 0.30 0.28 0.27
0.56 0.57 0.58 0.56 0.55 0.54 0.54 0.54 0.55 0.56 0.53 0.46 0.42 0.45 0.47 0.48 0.55 0.47 0.57 0.62 0.59 0.49 0.47 0.34 0.35 0.42 0.55 0.43 0.38 0.47 0.40 0.40 0.39 0.36 0.34 0.31 0.32 0.29 0.21 0.27 0.31 0.30 0.31 0.32 0.31 0.32 0.31 0.33 0.32 0.30 0.27 0.26 0.26 0.27
0.57 0.56 0.62 0.63 0.55 0.55 0.54 0.55 0.55 0.55 0.50 0.45 0.47 0.48 0.47 0.49 0.42 0.44 0.63 0.65 0.64 0.51 0.37 0.37 0.31 0.30 0.48 0.41 0.40 0.38 0.38 0.31 0.38 0.30 0.29 0.29 0.25 0.20 0.23 0.25 0.25 0.27 0.27 0.27 0.31 0.29 0.28 0.27 0.26 0.25 0.26 0.27 0.28 0.27
0.44 0.47 0.52 0.49 0.51 0.52 0.52 0.52 0.53 0.53 0.48 0.49 0.46 0.40 0.35 0.45 0.58 0.55 0.51 0.45 0.45 0.46 0.42 0.35 0.39 0.32 0.40 0.37 0.35 0.33 0.33 0.28 0.23 0.28 0.30 0.23 0.21 0.25 0.21 0.24 0.27 0.28 0.27 0.28 0.23 0.23 0.25 0.24 0.24 0.25 0.26 0.29 0.28 0.27
0.39 0.39 0.41 0.44 0.46 0.46 0.48 0.49 0.49 0.47 0.48 0.41 0.37 0.37 0.49 0.59 0.48 0.42 0.36 0.34 0.35 0.32 0.36 0.36 0.36 0.33 0.41 0.31 0.31 0.33 0.26 0.28 0.19 0.23 0.22 0.19 0.16 0.18 0.23 0.25 0.29 0.29 0.29 0.28 0.27 0.27 0.28 0.27 0.26 0.27 0.26 0.28 0.27 0.27
0.38 0.39 0.40 0.42 0.44 0.45 0.47 0.47 0.45 0.42 0.41 0.41 0.46 0.54 0.51 0.43 0.37 0.31 0.28 0.31 0.30 0.26 0.33 0.31 0.33 0.37 0.38 0.39 0.30 0.30 0.24 0.23 0.14 0.26 0.19 0.15 0.17 0.21 0.24 0.26 0.29 0.30 0.29 0.28 0.28 0.27 0.28 0.28 0.28 0.27 0.26 0.26 0.27 0.27
0.39 0.38 0.38 0.40 0.42 0.44 0.44 0.46 0.47 0.50 0.50 0.48 0.43 0.37 0.35 0.33 0.24 0.21 0.19 0.23 0.25 0.31 0.33 0.34 0.33 0.37 0.37 0.35 0.30 0.26 0.20 0.19 0.28 0.19 0.14 0.15 0.21 0.23 0.25 0.27 0.29 0.31 0.30 0.29 0.27 0.28 0.28 0.27 0.27 0.27 0.26 0.27 0.29 0.27
0.43 0.43 0.42 0.42 0.45 0.46 0.48 0.49 0.49 0.49 0.43 0.30 0.26 0.22 0.24 0.22 0.20 0.19 0.22 0.25 0.31 0.34 0.34 0.36 0.36 0.35 0.35 0.30 0.27 0.20 0.25 0.25 0.17 0.13 0.10 0.16 0.21 0.24 0.27 0.29 0.29 0.28 0.28 0.28 0.27 0.27 0.27 0.27 0.27 0.27 0.28 0.29 0.27 0.24
0.48 0.49 0.49 0.47 0.48 0.50 0.52 0.50 0.53 0.46 0.32 0.23 0.22 0.17 0.20 0.24 0.29 0.31 0.34 0.32 0.34 0.38 0.37 0.36 0.35 0.35 0.30 0.26 0.24 0.23 0.18 0.13 0.14 0.10 0.14 0.19 0.22 0.25 0.27 0.29 0.28 0.28 0.28 0.27 0.28 0.27 0.28 0.28 0.27 0.27 0.27 0.27 0.25 0.24
0.51 0.50 0.48 0.52 0.55 0.53 0.50 0.49 0.42 0.38 0.34 0.31 0.30 0.26 0.30 0.29 0.29 0.32 0.32 0.33 0.39 0.38 0.40 0.37 0.30 0.27 0.22 0.21 0.17 0.13 0.12 0.08 0.10 0.15 0.19 0.22 0.24 0.27 0.28 0.28 0.29 0.28 0.28 0.27 0.27 0.28 0.28 0.27 0.26 0.26 0.25 0.25 0.24 0.24
0.48 0.44 0.49 0.45 0.44 0.46 0.41 0.36 0.35 0.32 0.33 0.32 0.31 0.36 0.36 0.33 0.31 0.34 0.36 0.36 0.44 0.37 0.31 0.28 0.20 0.20 0.23 0.15 0.13 0.14 0.11 0.15 0.19 0.22 0.25 0.28 0.28 0.28 0.28 0.28 0.28 0.26 0.26 0.26 0.26 0.26 0.25 0.26 0.26 0.25 0.23 0.24 0.24 0.23
0.45 0.49 0.46 0.42 0.41 0.39 0.37 0.36 0.34 0.34 0.31 0.35 0.32 0.35 0.39 0.39 0.38 0.38 0.40 0.43 0.39 0.33 0.30 0.23 0.24 0.17 0.14 0.12 0.12 0.17 0.19 0.22 0.27 0.27 0.27 0.28 0.28 0.28 0.28 0.26 0.26 0.26 0.26 0.25 0.25 0.25 0.25 0.25 0.24 0.24 0.24 0.24 0.23 0.21
0.54 0.52 0.50 0.45 0.42 0.37 0.33 0.35 0.38 0.32 0.35 0.38 0.39 0.41 0.41 0.41 0.43 0.44 0.43 0.43 0.41 0.37 0.30 0.25 0.19 0.16 0.16 0.19 0.18 0.20 0.22 0.25 0.25 0.26 0.26 0.28 0.28 0.27 0.27 0.27 0.26 0.26 0.26 0.26 0.26 0.26 0.26 0.26 0.25 0.25 0.25 0.24 0.23 0.19
0.49 0.49 0.46 0.44 0.40 0.34 0.32 0.34 0.42 0.36 0.33 0.37 0.41 0.37 0.38 0.39 0.41 0.41 0.40 0.39 0.34 0.28 0.22 0.19 0.18 0.21 0.21 0.24 0.27 0.27 0.28 0.29 0.29 0.25 0.25 0.26 0.28 0.27 0.27 0.27 0.26 0.27 0.27 0.27 0.27 0.27 0.26 0.25 0.26 0.26 0.26 0.25 0.23 0.16
0.40 0.42 0.41 0.39 0.37 0.36 0.35 0.33 0.33 0.37 0.39 0.36 0.39 0.38 0.36 0.38 0.34 0.34 0.33 0.35 0.29 0.25 0.20 0.24 0.25 0.27 0.30 0.31 0.32 0.32 0.31 0.32 0.30 0.29 0.25 0.23 0.27 0.27 0.27 0.28 0.29 0.29 0.28 0.27 0.26 0.26 0.26 0.24 0.25 0.27 0.28 0.26 0.24 0.17
0.34 0.37 0.32 0.36 0.33 0.33 0.33 0.38 0.35 0.38 0.36 0.36 0.34 0.34 0.29 0.27 0.28 0.30 0.33 0.26 0.25 0.25 0.26 0.26 0.26 0.27 0.28 0.29 0.31 0.32 0.32 0.32 0.32 0.31 0.30 0.29 0.26 0.27 0.28 0.30 0.30 0.28 0.28 0.28 0.28 0.27 0.26 0.25 0.27 0.29 0.29 0.27 0.23 0.18
0.33 0.30 0.27 0.28 0.27 0.28 0.28 0.34 0.28 0.31 0.25 0.29 0.32 0.28 0.26 0.24 0.25 0.29 0.21 0.23 0.25 0.29 0.30 0.29 0.29 0.30 0.28 0.30 0.31 0.31 0.31 0.30 0.28 0.28 0.29 0.29 0.30 0.31 0.30 0.30 0.30 0.29 0.28 0.29 0.29 0.28 0.26 0.27 0.29 0.29 0.28 0.27 0.21 0.16
0.33 0.25 0.22 0.21 0.23 0.22 0.28 0.26 0.28 0.25 0.25 0.23 0.22 0.19 0.20 0.21 0.25 0.21 0.16 0.19 0.24 0.28 0.27 0.27 0.28 0.26 0.27 0.27 0.26 0.27 0.30 0.32 0.31 0.31 0.31 0.28 0.27 0.28 0.29 0.29 0.30 0.30 0.30 0.31 0.30 0.30 0.30 0.29 0.29 0.28 0.28 0.25 0.20 0.16
0.20 0.21 0.22 0.20 0.25 0.21 0.20 0.21 0.22 0.22 0.20 0.20 0.18 0.17 0.19 0.23 0.16 0.16 0.15 0.18 0.22 0.23 0.25 0.25 0.25 0.24 0.23 0.24 0.26 0.27 0.30 0.29 0.27 0.26 0.29 0.30 0.28 0.27 0.26 0.28 0.29 0.30 0.32 0.30 0.30 0.30 0.30 0.30 0.29 0.28 0.27 0.25 0.20 0.17
0.17 0.22 0.20 0.21 0.22 0.20 0.20 0.18 0.19 0.19 0.20 0.19 0.18 0.20 0.21 0.16 0.13 0.13 0.16 0.17 0.19 0.21 0.22 0.22 0.21 0.21 0.20 0.22 0.21 0.21 0.23 0.26 0.25 0.22 0.23 0.25 0.23 0.22 0.21 0.21 0.23 0.27 0.33 0.33 0.31 0.30 0.29 0.29 0.28 0.27 0.26 0.24 0.21 0.18
0.14 0.16 0.22 0.28 0.26 0.25 0.23 0.24 0.24 0.21 0.17 0.15 0.17 0.18 0.17 0.14 0.13 0.18 0.25 0.27 0.24 0.26 0.26 0.25 0.24 0.23 0.23 0.25 0.26 0.27 0.29 0.29 0.28 0.28 0.30 0.31 0.32 0.32 0.30 0.28 0.27 0.31 0.34 0.34 0.33 0.31 0.29 0.28 0.27 0.27 0.26 0.23 0.20 0.18
0.19 0.20 0.16 0.20 0.21 0.22 0.18 0.18 0.17 0.18 0.19 0.21 0.20 0.16 0.14 0.13 0.14 0.21 0.23 0.25 0.24 0.23 0.22 0.23 0.24 0.24 0.23 0.24 0.25 0.26 0.26 0.28 0.29 0.30 0.30 0.31 0.32 0.33 0.33 0.34 0.34 0.34 0.34 0.34 0.33 0.32 0.30 0.29 0.27 0.26 0.24 0.20 0.19 0.17
0.20 0.22 0.20 0.16 0.18 0.18 0.18 0.17 0.17 0.20 0.22 0.19 0.15 0.15 0.16 0.21 0.22 0.21 0.23 0.24 0.24 0.22 0.19 0.19 0.20 0.23 0.23 0.23 0.23 0.24 0.23 0.23 0.21 0.20 0.20 0.21 0.24 0.27 0.32 0.33 0.33 0.33 0.33 0.32 0.32 0.32 0.31 0.29 0.27 0.24 0.22 0.19 0.18 0.16
0.21 0.24 0.19 0.18 0.16 0.15 0.17 0.20 0.20 0.22 0.23 0.22 0.21 0.19 0.18 0.19 0.22 0.26 0.24 0.23 0.22 0.20 0.21 0.21 0.22 0.21 0.20 0.20 0.20 0.21 0.23 0.24 0.23 0.21 0.19 0.20 0.22 0.27 0.30 0.31 0.32 0.32 0.32 0.32 0.31 0.30 0.30 0.27 0.25 0.22 0.20 0.18 0.16 0.15
0.23 0.22 0.20 0.20 0.19 0.21 0.22 0.24 0.24 0.25 0.24 0.23 0.24 0.20 0.18 0.20 0.23 0.25 0.24 0.24 0.24 0.24 0.23 0.21 0.22 0.22 0.20 0.20 0.19 0.19 0.19 0.23 0.23 0.24 0.24 0.24 0.25 0.26 0.27 0.29 0.31 0.32 0.31 0.30 0.29 0.28 0.27 0.25 0.23 0.21 0.19 0.17 0.16 0.15
0.13 0.13 0.16 0.17 0.19 0.23 0.25 0.23 0.22 0.21 0.22 0.22 0.22 0.23 0.22 0.20 0.18 0.21 0.24 0.25 0.24 0.23 0.24 0.24 0.22 0.22 0.24 0.24 0.24 0.24 0.24 0.23 0.23 0.24 0.24 0.25 0.25 0.26 0.27 0.29 0.30 0.30 0.29 0.28 0.28 0.27 0.26 0.24 0.22 0.21 0.19 0.17 0.16 0.15
0.18 0.17 0.15 0.14 0.14 0.17 0.21 0.21 0.20 0.20 0.21 0.20 0.21 0.23 0.23 0.22 0.19 0.22 0.25 0.25 0.24 0.24 0.24 0.25 0.25 0.26 0.26 0.26 0.26 0.26 0.26 0.26 0.26 0.26 0.26 0.27 0.28 0.28 0.28 0.29 0.30 0.29 0.27 0.26 0.26 0.25 0.24 0.23 0.21 0.20 0.18 0.16 0.14 0.14
Wind_Speed
24 25 26 26 25 25 25 24 25 25 26 27 28 30 31 31 34 33 33 35 35 28 29 26 21 19 22 29 28 27 28 29 29 24 22 19 18 22 19 19 21 20 18 20 18 18 21 17 14 16 15 13 13 13
23 24 26 26 26 26 25 26 26 26 27 28 29 30 31 30 31 30 29 34 34 28 27 25 23 20 19 23 24 28 28 31 29 24 22 19 18 17 16 16 17 16 19 18 18 18 16 15 16 14 14 13 13 13
25 26 27 27 27 27 27 27 27 27 27 28 30 30 31 30 31 30 28 27 30 26 26 29 25 21 22 25 29 23 26 28 27 26 21 18 17 18 16 17 15 17 17 14 14 17 16 15 13 13 12 12 12 11
25 25 26 27 28 28 28 28 28 27 27 27 29 31 33 33 31 29 28 25 29 23 21 23 21 19 20 24 29 30 23 25 24 26 21 18 16 17 17 15 15 16 16 14 14 13 12 13 13 12 10 10 9 11
30 31 31 31 31 30 30 29 30 29 29 29 29 30 34 35 32 27 27 27 27 23 16 15 17 16 18 24 23 27 25 20 22 21 19 18 16 14 14 13 14 15 14 14 15 16 13 13 13 11 11 11 11 11
32 34 36 37 37 35 34 32 31 30 32 32 32 34 37 36 31 27 24 28 26 20 12 10 7 10 16 18 30 23 22 18 17 19 18 17 16 14 13 12 13 14 13 13 12 12 11 11 11 11 10 10 10 10
33 36 39 41 41 40 38 35 31 29 30 36 37 39 39 36 33 27 22 21 26 20 11 7 6 11 16 18 19 21 17 17 16 15 16 18 15 14 13 13 13 12 11 10 9 8 8 11 10 9 9 9 8 9
26 31 35 39 42 41 39 37 34 32 35 38 39 41 39 35 31 27 20 23 22 17 12 6 9 15 15 16 15 15 15 13 12 14 14 16 15 13 12 12 11 11 11 10 9 8 9 9 8 8 8 8 8 9
11 15 26 37 45 42 40 39 39 39 40 41 42 42 36 32 29 28 23 21 19 16 10 9 13 14 17 15 15 14 11 11 10 11 12 14 13 12 12 14 14 14 11 11 8 7 8 8 8 8 8 8 8 9
17 23 34 46 46 46 45 44 45 46 49 47 45 37 29 30 29 27 22 19 17 15 13 12 14 12 16 15 13 11 9 10 9 10 11 11 12 12 13 14 14 12 11 10 8 7 8 8 8 8 9 9 9 9
36 41 45 48 50 51 51 51 53 54 53 44 36 29 31 33 27 23 19 19 18 16 16 15 15 14 14 15 13 8 9 9 8 10 10 10 11 13 14 14 13 12 11 9 8 8 8 8 8 7 7 8 8 8
46 49 52 54 55 56 56 56 56 50 42 38 34 34 32 26 23 19 20 19 17 17 14 15 15 16 14 14 11 8 9 8 8 10 9 9 10 14 15 14 13 11 9 7 7 6 6 6 7 7 7 8 8 8
45 47 49 51 52 52 53 53 47 44 42 37 30 26 24 22 18 20 20 18 17 16 16 16 16 15 14 11 10 9 8 9 8 7 9 10 11 15 15 14 11 10 9 7 6 6 6 6 7 7 7 8 9 10
43 44 46 47 48 50 47 44 43 41 29 25 23 21 20 17 17 16 17 18 16 14 18 17 14 13 13 10 9 8 8 8 7 7 9 10 13 15 14 13 11 10 9 8 7 7 7 7 7 8 8 9 9 10
42 43 45 45 45 41 40 39 34 24 21 19 17 16 14 14 14 14 15 16 16 16 18 15 12 12 12 10 9 9 8 8 9 9 7 11 14 14 13 12 10 9 9 8 8 8 8 8 8 8 9 9 10 10
39 41 39 39 35 34 33 27 23 20 16 15 13 12 12 14 13 12 14 16 16 17 16 13 11 12 12 11 10 10 9 9 7 8 8 12 14 13 12 10 9 9 8 8 8 8 9 9 9 9 9 10 10 11
33 32 33 30 28 28 22 21 19 15 13 11 11 9 11 12 12 12 13 15 16 16 14 12 10 13 11 9 10 11 9 6 6 8 10 12 13 12 10 9 8 8 8 8 8 9 9 9 9 9 10 12 11 12
27 29 29 25 22 19 18 16 14 11 11 10 9 9 9 9 10 12 12 15 16 14 13 11 10 10 11 10 10 10 7 8 8 8 9 10 10 9 8 8 8 8 8 8 9 9 10 10 11 12 12 12 12 12
25 24 21 18 16 15 14 12 10 10 9 9 8 8 9 9 11 12 13 14 14 12 12 10 8 10 10 9 8 10 11 10 10 9 8 8 8 8 7 7 8 8 9 9 10 11 12 12 13 13 13 13 14 14
20 17 13 13 10 11 10 9 9 9 9 8 8 9 9 10 11 11 12 12 13 11 10 9 9 8 9 8 9 11 12 12 11 10 8 8 8 8 8 9 9 9 10 11 12 12 13 14 14 14 14 14 14 14
12 11 10 10 9 8 8 8 8 10 9 9 9 9 9 10 9 9 11 11 12 11 10 9 9 8 8 8 10 11 11 11 11 11 10 10 10 10 10 10 11 12 13 14 14 15 15 16 16 16 16 16 16 16
10 8 8 8 9 7 7 7 9 10 9 10 10 10 10 9 9 9 10 9 11 12 11 11 9 9 9 9 9 10 10 10 10 10 11 11 12 12 13 13 14 15 16 16 17 18 18 18 17 18 17 17 17 17
9 8 7 6 7 6 8 7 8 8 9 11 10 10 9 9 10 10 9 10 11 11 12 11 10 9 9 9 9 10 10 11 11 12 13 14 14 15 15 16 16 16 17 18 18 18 18 18 18 17 17 17 17 17
8 8 7 7 6 7 8 7 8 8 9 9 10 9 10 10 10 9 9 10 11 11 11 11 11 10 10 10 11 11 12 14 14 15 15 15 16 17 17 17 17 18 18 18 18 18 18 19 18 18 18 18 18 18
7 7 8 9 9 9 9 8 9 9 10 10 10 10 11 10 9 9 11 12 12 12 12 12 12 12 13 14 14 14 15 15 16 16 17 17 17 17 17 18 19 19 19 18 19 19 19 19 19 19 19 19 19 19
5 7 7 9 11 11 13 12 13 12 12 12 12 12 11 11 10 12 12 13 13 13 14 14 13 13 12 12 12 13 14 15 15 16 17 18 18 19 19 19 19 20 20 20 19 19 19 20 19 20 20 20 20 19
5 7 7 8 9 9 10 11 13 13 13 14 14 14 12 12 14 13 13 13 12 12 12 11 11 10 10 10 11 11 11 12 13 14 15 16 17 17 18 18 19 20 20 20 20 19 19 19 20 20 20 20 20 19
8 7 8 9 9 9 10 11 11 12 13 13 13 14 15 14 13 13 13 13 12 11 10 10 10 10 10 10 10 11 11 12 13 14 15 16 17 18 18 19 18 18 18 18 19 19 19 19 19 19 19 19 18 18
10 10 10 10 10 10 11 11 12 12 13 14 14 14 13 13 12 13 14 14 13 12 12 11 11 11 11 11 12 13 14 14 15 16 17 18 18 19 18 18 18 18 18 17 17 17 17 17 17 16 16 16 16 16
15 14 13 13 13 13 13 13 13 13 14 14 14 14 14 13 14 14 15 15 15 15 15 14 14 15 15 15 16 17 17 18 18 19 19 20 20 19 19 18 18 17 17 16 15 14 14 14 14 14 14 14 14 15
18 17 18 18 18 17 17 17 17 18 17 17 17 17 17 17 17 16 16 17 17 17 17 17 17 17 18 18 19 20 21 21 22 21 20 19 19 19 18 17 17 17 16 15 15 14 14 14 14 14 14 14 15 16
18 20 20 21 21 22 21 20 20 19 19 20 19 19 19 19 19 20 19 20 20 20 19 20 20 20 21 22 22 22 22 21 21 22 22 22 21 19 18 16 15 14 14 14 15 15 15 14 14 15 15 15 16 16
13 13 15 19 22 23 23 23 23 23 23 23 23 23 23 23 23 22 21 21 22 22 21 21 22 22 22 23 23 23 23 23 23 23 23 21 20 18 17 16 14 14 13 13 13 14 14 14 14 14 15 15 16 17
Wind_Direction
224 223 223 225 228 229 227 224 220 217 214 211 209 206 207 208 209 212 214 215 214 222 221 219 227 233 228 222 223 219 211 213 213 217 218 220 222 225 233 229 228 231 234 241 247 253 262 258 261 257 262 263 253 254
225 226 227 228 229 227 224 221 218 216 214 211 208 207 207 207 206 207 213 209 211 220 213 213 224 224 227 227 223 213 216 211 211 213 222 223 224 218 220 231 231 233 233 238 240 249 255 263 261 258 255 248 249 252
233 232 231 229 228 225 222 219 217 215 212 211 209 207 205 204 201 202 198 204 205 208 218 219 226 230 239 231 218 215 212 208 214 216 215 219 217 220 224 231 230 235 235 239 241 253 258 256 254 252 244 246 249 253
235 233 230 228 226 223 222 219 213 210 209 208 207 205 201 197 193 194 198 197 195 201 211 212 224 240 242 222 213 208 206 210 214 212 216 218 222 223 224 227 227 229 227 235 249 251 250 253 241 237 238 243 250 259
243 239 235 230 226 222 218 215 213 211 211 209 205 199 194 190 190 193 195 193 197 198 198 218 230 236 237 197 202 198 196 200 202 203 212 214 216 212 214 219 229 227 230 236 247 239 243 236 233 231 235 245 253 261
247 242 237 232 227 222 218 214 213 216 212 206 198 192 186 185 185 182 187 194 189 188 200 215 245 227 196 192 188 184 190 194 195 201 204 205 207 209 216 225 231 226 231 234 241 228 238 221 226 239 240 248 258 266
250 244 238 230 223 218 214 212 209 205 199 190 186 182 179 180 180 179 180 182 187 189 199 212 213 167 157 165 165 173 175 188 193 194 202 202 210 218 224 227 229 222 225 223 214 206 213 220 231 230 240 251 261 274
252 243 233 221 211 205 201 198 193 186 178 175 175 174 175 176 179 183 176 175 176 185 194 203 171 166 166 160 164 172 178 183 190 194 201 205 210 216 223 219 211 210 202 202 214 226 219 213 216 233 242 247 264 276
257 233 210 196 187 183 181 178 175 171 168 165 163 164 165 173 174 176 173 172 178 179 179 164 161 160 168 169 166 166 174 179 191 194 198 199 209 217 217 202 199 193 204 200 207 206 205 213 222 231 245 258 267 275
106 116 135 148 157 160 160 160 159 157 155 153 153 158 164 169 164 168 173 178 180 187 183 176 174 168 171 173 174 177 185 188 194 203 197 207 218 218 205 196 192 194 189 192 194 216 218 224 230 240 255 264 268 272
108 115 123 132 139 144 146 147 147 147 148 149 152 155 154 156 161 167 176 178 182 186 186 182 180 174 178 176 178 189 191 197 201 210 203 214 217 209 196 192 192 192 194 205 217 223 227 228 235 245 257 263 269 268
110 113 118 123 129 133 136 139 142 143 146 148 146 144 149 159 165 173 178 180 183 187 184 185 181 177 178 180 189 198 194 200 208 200 201 218 212 193 188 189 190 195 201 212 220 225 231 235 239 245 255 265 269 272
114 116 120 124 128 132 135 138 140 141 141 142 145 150 158 164 168 175 180 184 181 184 184 177 173 176 181 189 192 197 199 209 196 202 213 210 194 188 187 187 192 202 206 217 228 234 235 242 247 253 264 274 273 276
117 119 122 126 128 131 134 138 140 141 142 148 152 154 161 172 181 182 183 181 180 177 174 174 178 188 189 187 193 194 207 194 204 207 212 201 189 185 188 194 196 206 216 223 228 235 238 247 256 267 273 275 278 279
119 121 124 126 130 133 134 139 143 145 144 148 153 161 172 173 170 170 173 174 178 170 170 174 181 186 186 190 197 187 191 205 202 206 207 190 183 183 188 195 201 211 221 230 238 245 247 252 257 269 276 281 282 281
122 123 126 127 129 136 138 140 144 145 146 150 152 159 165 167 169 168 169 169 175 174 174 177 182 183 192 189 187 194 183 201 208 201 193 178 179 183 189 197 210 221 231 239 246 247 251 254 257 268 277 282 282 282
125 129 133 131 130 136 139 144 145 144 147 149 157 155 159 160 163 170 171 173 174 171 174 176 176 185 179 186 191 189 197 203 196 181 176 177 180 184 193 205 217 226 234 241 247 250 255 259 262 272 278 282 284 285
126 132 133 131 133 133 138 145 146 145 145 143 146 153 155 166 169 168 170 170 170 175 178 182 176 180 181 185 195 200 193 180 174 174 173 173 178 188 202 212 223 230 237 244 248 254 257 261 267 275 279 279 284 284
133 134 135 136 138 140 142 145 151 151 149 152 155 157 158 159 162 166 168 171 171 173 176 182 180 189 194 201 205 199 190 188 182 180 184 190 195 203 215 223 231 242 245 249 255 261 265 268 273 275 276 278 283 280
138 146 147 151 149 153 156 160 161 163 164 167 167 166 164 162 168 169 168 174 181 183 182 189 197 202 206 209 202 190 188 187 187 193 204 213 222 224 231 238 247 250 255 260 264 266 270 274 275 274 275 279 282 280
143 148 156 166 164 161 170 179 178 178 181 184 178 173 174 176 176 180 185 193 190 194 195 198 199 203 201 194 188 187 193 203 211 220 225 230 236 241 249 254 257 261 264 265 267 270 272 273 272 272 274 278 279 277
161 160 162 167 174 178 180 190 187 187 189 186 186 183 181 183 187 193 194 193 197 203 204 202 205 207 200 202 204 203 208 218 227 231 234 236 246 253 257 259 263 268 270 270 270 271 273 271 271 272 273 277 278 277
176 175 174 177 176 185 185 180 181 187 184 190 185 186 194 196 198 196 196 202 205 204 203 204 206 208 209 215 215 222 227 230 240 245 248 254 259 261 263 265 268 270 273 275 274 272 272 269 270 271 274 277 277 276
190 194 196 195 190 193 191 193 187 183 185 189 193 198 201 202 205 205 209 208 205 205 208 211 216 222 228 233 237 242 249 251 254 258 259 260 263 265 266 269 270 272 275 277 274 273 271 270 269 270 272 276 277 277
199 223 216 224 218 206 205 207 208 208 204 204 200 211 211 208 212 219 217 214 213 216 220 226 232 238 244 249 253 255 260 259 260 263 263 265 269 270 271 272 274 275 274 276 275 272 271 271 270 270 272 275 276 276
204 234 220 224 224 217 216 215 217 217 212 217 219 217 215 218 223 230 226 221 226 229 232 235 238 242 248 250 254 260 259 262 264 267 267 266 269 272 273 274 276 276 273 274 273 272 272 271 270 271 273 274 275 276
230 239 232 224 222 216 220 222 219 219 220 219 218 218 224 230 235 236 226 224 223 222 221 223 227 234 244 250 257 266 269 271 272 274 276 275 277 278 277 277 276 276 274 273 272 272 272 271 271 272 274 276 274 274
238 238 227 231 223 223 216 218 217 218 222 223 217 222 218 223 227 220 214 213 214 214 219 227 236 244 249 256 261 268 276 279 281 284 286 287 286 284 282 280 279 279 277 275 274 274 274 273 273 273 274 274 273 274
244 246 237 237 233 229 227 226 227 225 225 219 218 221 221 225 222 215 215 216 219 226 232 238 246 251 257 264 271 278 281 283 287 288 288 289 290 287 285 281 279 278 276 275 276 276 274 274 274 273 273 274 274 276
248 246 241 239 236 235 234 233 230 231 228 226 224 222 224 225 226 225 223 228 234 239 243 249 255 261 265 270 275 281 284 285 289 290 291 290 288 286 283 279 276 273 271 271 274 275 275 276 275 276 275 274 275 279
251 250 247 243 241 242 243 243 241 239 237 235 235 232 233 234 234 237 238 242 245 247 251 255 260 263 267 271 275 280 284 287 287 288 288 289 288 287 281 278 275 269 266 266 269 272 275 275 274 274 274 276 279 283
255 252 249 249 247 246 246 244 241 239 240 238 238 236 236 238 240 244 248 248 249 251 255 258 262 266 269 273 276 279 283 286 286 287 285 284 283 281 276 271 270 268 265 266 270 272 274 275 274 274 275 278 281 285
265 264 258 252 249 248 245 244 244 243 241 241 241 241 242 243 246 249 252 252 252 254 257 261 264 268 273 276 277 279 281 284 285 286 285 281 276 273 265 259 262 265 267 269 272 274 276 276 276 276 278 281 284 287